Overview Statistics Trail Chart Weather Telemetry Raw packets
 

This is the latest recevied weather packets stored in our database for station/object N5ATR. If no packets are shown the sender has not sent any weather packets the latest 10 day(s).

<< 21 22 23 24 25 26 27 >>
Time Temp. Humidity Pressure Rain* Wind** Luminosity Snow
1788547501 24.44° C 49% 1023.3 hPa 0 mm - 251 W/m² -
1788547195 24.44° C 48% 1023.1 hPa 0 mm - 304 W/m² -
1788546891 24.44° C 49% 1023 hPa 0 mm - 485 W/m² -
1788546586 23.89° C 49% 1023 hPa 0 mm - 409 W/m² -
1788546282 23.89° C 51% 1023.4 hPa 0 mm - 388 W/m² -
1788545981 22.78° C 53% 1023.4 hPa 0 mm - 320 W/m² -
1788545677 22.78° C 53% 1023.5 hPa 0 mm - 255 W/m² -
1788545372 22.78° C 53% 1023.4 hPa 0 mm - 268 W/m² -
1788545067 22.78° C 53% 1023.4 hPa 0 mm - 230 W/m² -
1788544761 22.78° C 53% 1023.5 hPa 0 mm - 276 W/m² -
1788544460 23.33° C 52% 1023.5 hPa 0 mm - 305 W/m² -
1788544160 22.22° C 54% 1023.9 hPa 0 mm - 275 W/m² -
1788543855 22.22° C 55% 1023.6 hPa 0 mm - 463 W/m² -
1788543551 22.22° C 55% 1024 hPa 0 mm - 277 W/m² -
1788543246 22.22° C 54% 1024.1 hPa 0 mm - 521 W/m² -
1788542942 21.67° C 55% 1023.9 hPa 0 mm - 313 W/m² -
1788542641 21.67° C 57% 1023.9 hPa 0 mm - 208 W/m² -
1788542337 21.67° C 55% 1023.8 hPa 0 mm - 321 W/m² -
1788542032 22.22° C 54% 1024.1 hPa 0 mm - 339 W/m² -
1788541728 22.22° C 55% 1023.8 hPa 0 mm - 536 W/m² -
1788541423 21.67° C 57% 1024 hPa 0 mm - 519 W/m² -
1788541119 22.22° C 56% 1024 hPa 0 mm - 377 W/m² -
1788540817 21.67° C 56% 1024 hPa 0 mm - 430 W/m² -
1788540513 20.56° C 60% 1024 hPa 0 mm - 304 W/m² -
1788540212 21.67° C 58% 1023.9 hPa 0 mm - 313 W/m² -

* Rain latest hour (hover to see other rain measurements)
** Current wind speed in m/s (hover to see current wind gust speed)